Simultaneous Nadir Overpasses (SNOs) Predictions

Prediction of SNOs between AQUA and GOES-15 Satellite Orbit:

Table of predicted SNOs for the next 14.0 days since TLE Epoch: 10/24/2020
Index Date Time (AQUA) AQUA Lat,Lon GOES-15 Lat,Lon Distance(km) Time Diff (sec)
1 10/25/2020 10:07:05 -0.17,-127.92 -0.13,-128.24 35.71 80
2 10/27/2020 09:54:54 -0.80,-124.97 -0.14,-128.20 366.95 80
3 10/27/2020 22:16:18 -0.29,-130.16 0.12,-128.18 225.14 80
4 10/29/2020 22:04:07 0.35,-127.21 0.13,-128.14 106.03 80
5 10/30/2020 10:25:22 0.81,-132.36 -0.11,-128.13 480.90 80
6 10/31/2020 21:51:55 0.94,-124.25 0.13,-128.09 436.76 80
7 11/01/2020 10:13:11 0.16,-129.41 -0.11,-128.08 150.21 80
8 11/03/2020 10:00:59 -0.43,-126.44 -0.12,-128.03 179.83 80
9 11/03/2020 22:22:22 -0.65,-131.64 0.10,-128.01 412.04 80
10 11/05/2020 22:10:11 -0.05,-128.68 0.10,-127.95 83.02 80
